"2014-08-17 00:01:00",1002703,5.048666,221.724,8.053317,0.6426598,6.55,0,4.088667,221.988,9.277903,0.5930696,4.95,0,0,0,15.31,75.89,15.42,13.2,5.346,0.526,246.8,16.51,13.59,6.138,101.5606,8.76,8.76,8.76,100
"2014-08-17 00:02:00",1002704,4.486,212.8666,4.867092,0.7940008,6.71,0,3.944667,212.5979,7.190916,0.4673309,4.66,0,0,0,15.33,75.81,15.43,13.21,4.975,0.475,227.4,16.51,13.59,5.513,101.5618,8.76,8.76,8.76,100
"2014-08-17 00:03:00",1002705,5.436667,217.6754,6.472502,0.6505145,6.38,0,4.538667,216.8105,6.300898,0.6576307,5.92,0,0,0,15.33,75.75,15.45,13.22,5.462,0.37,220.8,16.51,13.59,6.075,101.5608,8.76,8.76,8.76,100
"2014-08-17 00:04:00",1002706,5.798,225.2768,6.112294,0.6645921,7.36,0,4.818,228.3372,6.969559,0.7050788,6.32,0,0,0,15.34,75.75,15.45,13.23,6.65,0.529,309.4,16.53,13.59,7.575,101.5617,8.76,8.76,8.76,100
"2014-08-17 00:05:00",1002707,4.395333,215.457,6.368593,0.5281272,5.8,0,3.397333,217.2513,7.096315,0.5937392,4.7,0,0,0,15.34,75.94,15.44,13.26,5.15,0.474,237.8,16.54,13.59,6.138,101.561,8.76,8.76,8.76,100
"2014-08-17 00:06:00",1002708,4.344,215.9502,6.285681,0.5291099,4.86,0,3.224,213.3845,7.965466,0.6428146,4.19,0,0,0,15.34,76.01,15.42,13.26,4.671,0.506,214.4,16.55,13.59,5.575,101.5601,8.76,8.76,8.76,100
"2014-08-17 00:07:00",1002709,3.707333,211.6704,6.412681,0.4756815,4.72,0,2.849334,212.2003,4.444865,0.4809223,3.86,0,0,0,15.31,76.18,15.41,13.26,4.604,0.353,211.4,16.56,13.59,5.325,101.5579,8.76,8.76,8.76,100
"2014-08-17 00:08:00",1002710,4.025334,212.0011,4.661189,0.4706855,4.85,0,3.36,212.0698,5.141738,0.5037195,4.1,0,0,0,15.28,76.31,15.38,13.26,3.892,0.303,177,16.56,13.59,4.45,101.5571,8.76,8.76,8.76,100
"2014-08-17 00:09:00",1002711,4.011333,215.6755,8.033568,0.523563,4.69,0,3.046,219.743,7.378156,0.5723029,4.16,0,0,0,15.3,76,15.42,13.22,4.929,0.685,218.4,16.56,13.59,6.138,101.5556,8.76,8.76,8.76,100
"2014-08-17 00:10:00",1002712,4.834,220.2017,4.790596,0.4145809,5.53,0,3.979333,215.4081,6.657688,0.4786156,4.89,0,0,0,15.31,76.15,15.41,13.26,5.4,0.54,249.4,16.59,13.59,6.075,101.5518,8.76,8.76,8.76,100
"2014-08-17 00:11:00",1002713,4.788,208.9997,7.611664,0.708766,5.64,0,3.685333,209.8011,7.380679,0.53324,4.54,0,0,0,15.31,75.98,15.43,13.22,5.112,0.54,235.8,16.59,13.59,6.075,101.5495,8.76,8.76,8.76,100
"2014-08-17 00:12:00",1002714,5.461333,215.1328,4.348729,0.7022997,6.71,0,4.031333,216.3955,8.471763,0.6060238,5.3,0,0,0,15.35,75.64,15.48,13.2,5.408,0.829,247.8,16.6,13.59,6.825,101.5454,8.76,8.76,8.76,100
"2014-08-17 00:13:00",1002715,6.506668,216.7934,5.714257,0.8576376,8.51,0,5.447333,214.9374,6.541944,0.7663112,7.78,0,0,0,15.39,75.26,15.54,13.19,6.5,0.397,302.2,16.61,13.59,7.263,101.5436,8.76,8.76,8.76,100
"2014-08-17 00:14:00",1002716,5.828,218.5313,4.270381,0.4351582,6.58,0,4.382667,220.8056,5.737325,0.3786726,5.12,0,0,0,15.42,75.07,15.55,13.2,6.429,0.436,299.2,16.61,13.59,7.013,101.5425,8.76,8.76,8.76,100
"2014-08-17 00:15:00",1002717,5.584,211.0789,7.671227,0.8406013,6.71,0,3.972,209.8028,7.929757,0.586722,4.9,0,0,0,15.43,75.02,15.55,13.21,5.371,0.523,248.2,16.62,13.59,6.263,101.541,8.76,8.76,8.76,100
"2014-08-17 00:16:00",1002718,5.173999,212.3377,6.759175,0.4492632,5.84,0,3.954,208.7161,9.248986,0.5713352,5.15,0,0,0,15.47,74.54,15.59,13.17,4.954,0.924,228.2,16.63,13.59,6.263,101.5406,8.76,8.76,8.76,100
"2014-08-17 00:17:00",1002719,5.908667,213.0784,7.618214,0.6312302,6.86,0,4.574667,211.0335,9.026711,0.7500388,6.29,0,0.0638,27.33,15.47,74.58,15.57,13.18,5.4,1.01,249.6,16.64,13.59,7.263,101.5393,8.76,8.76,8.76,100
"2014-08-17 00:18:00",1002720,5.289333,210.1324,6.094365,0.4803536,6.29,0,4.546667,204.4314,10.11696,0.4987673,5.5,0,0,0,15.46,74.64,15.56,13.18,4.75,0.845,218.4,16.66,13.59,6.325,101.5385,8.76,8.76,8.76,100
"2014-08-17 00:19:00",1002721,4.450666,214.8087,6.858849,0.738823,5.27,0,3.25,216.8016,5.442489,0.4703474,4.36,0,0,0,15.49,74.41,15.6,13.18,4.817,0.424,221.4,16.66,13.59,5.513,101.5385,8.76,8.76,8.76,100
"2014-08-17 00:20:00",1002722,6.125333,217.6645,5.106361,1.263218,8.14,0,5.59,210.4737,6.827545,1.333232,7.41,0,0,0,15.49,74.66,15.57,13.2,5.837,1.245,270.6,16.66,13.59,8.01,101.5361,8.76,8.76,8.76,100
"2014-08-17 00:21:00",1002723,6.294,221.8632,8.064263,0.8714799,7.58,0,4.98,223.2912,10.45227,0.687265,6.29,0,0,0,15.53,74.34,15.63,13.2,6.221,0.829,289,16.67,13.59,7.513,101.5311,8.76,8.76,8.76,100
"2014-08-17 00:22:00",1002724,6.590001,224.8765,7.719337,1.011922,8.19,0,4.702667,224.3963,8.336667,0.880897,6.84,0,0,0,15.54,74.32,15.61,13.21,7.275,0.917,317,16.69,13.59,8.64,101.5301,8.76,8.76,8.76,100
"2014-08-17 00:23:00",1002725,6.430666,223.1312,3.738455,0.6476467,7.61,0,4.764667,221.2702,5.718137,0.9838893,6.64,0,0,0,15.49,74.77,15.54,13.24,6.875,0.739,297.6,16.69,13.59,7.888,101.5258,8.76,8.76,8.76,100
"2014-08-17 00:24:00",1002726,4.588,212.3302,6.695854,0.6107722,5.57,0,3.442,209.4022,8.927579,0.6452824,4.31,0,0,0,15.43,75.23,15.49,13.24,4.996,0.69,229.6,16.7,13.59,6.263,101.5266,8.76,8.76,8.76,100
"2014-08-17 00:25:00",1002727,4.987334,214.6696,6.882573,0.8382401,6.65,0,4.018667,208.5378,9.087479,0.622317,4.88,0,0,0,15.41,75.17,15.49,13.22,5.158,0.857,234.4,16.71,13.59,7.013,101.5219,8.76,8.76,8.76,100
"2014-08-17 00:26:00",1002728,4.630667,214.8687,6.574969,0.6289193,5.74,0,3.401333,213.6642,5.566895,0.6610483,4.85,0,0,0,15.41,75.29,15.48,13.23,5.308,0.523,245,16.71,13.59,6.013,101.5206,8.76,8.76,8.76,100
"2014-08-17 00:27:00",1002729,4.33,213.1322,6.708509,0.4284391,5.19,0,3.321333,214.7359,6.520932,0.4740305,4.09,0,0,0,15.37,75.62,15.44,13.24,4.492,0.748,205.4,16.72,13.59,5.575,101.5205,8.76,8.76,8.76,100
"2014-08-17 00:28:00",1002730,5.042666,211.3423,8.871539,1.335358,7.04,0,4.634001,211.8175,9.519491,1.237054,7.07,0,0,0,15.37,75.65,15.44,13.23,5.225,0.675,239.8,16.73,13.59,6.45,101.5175,8.76,8.76,8.76,100
"2014-08-17 00:29:00",1002731,5.304,219.2094,5.862243,0.498408,6.49,0,4.316,220.6851,6.723083,0.7269094,5.71,0,0,0,15.4,75.46,15.49,13.23,5.458,0.739,245.6,16.74,13.59,7.138,101.5159,8.76,8.76,8.76,100
"2014-08-17 00:30:00",1002732,4.542666,213.3616,8.424188,0.5956785,5.67,0,3.544667,211.3053,8.974064,0.8003238,5.32,0,0,0,15.39,75.51,15.47,13.23,4.904,0.696,222.6,16.74,13.59,5.888,101.5149,8.76,8.76,8.76,100
"2014-08-17 00:31:00",1002733,4.386667,213.1351,10.03264,0.8298006,6.09,0,3.439333,213.4726,8.276326,0.6730772,4.53,0,0,0,15.37,75.72,15.43,13.23,5.354,0.547,237,16.76,13.59,6.388,101.5164,8.76,8.76,8.76,100
"2014-08-17 00:32:00",1002734,4.042666,218.5983,3.515743,0.3743165,4.55,0,3.577333,220.9341,4.417479,0.4649655,4.42,0,0,0,15.35,75.92,15.41,13.23,5.054,0.462,119.4,16.76,13.59,6.075,101.5124,8.76,8.76,8.76,100
"2014-08-17 00:33:00",1002735,4.274667,214.2121,6.838198,1.177913,6.57,0,3.643334,217.8717,5.002247,0.7440847,4.79,0,0,0,15.3,76.34,15.35,13.24,4.767,0.618,8,16.76,13.59,6.138,101.5139,8.76,8.76,8.76,100
"2014-08-17 00:34:00",1002736,5.16,212.8821,6.956345,0.5980858,6.25,0,4.347334,217.2846,8.71989,0.8472817,5.92,0,0,0,15.31,76.06,15.4,13.23,5.787,0.526,228.8,16.76,13.59,6.638,101.513,8.76,8.76,8.76,100
"2014-08-17 00:35:00",1002737,4.951333,212.9466,8.996355,0.6988835,6.2,0,4.038667,210.2374,9.51677,0.5813303,5.25,0,0,0,15.32,75.92,15.43,13.21,5.162,0.922,173.4,16.78,13.59,6.763,101.5134,8.76,8.76,8.76,100
"2014-08-17 00:36:00",1002738,5.254667,215.3324,7.867435,0.7267541,6.38,0,4.335334,215.6742,6.566155,0.9477825,6.06,0,0,0,15.37,75.41,15.5,13.19,5.137,0.561,235.6,16.79,13.59,6.388,101.5131,8.76,8.76,8.76,100
"2014-08-17 00:37:00",1002739,4.702667,212.6616,6.627424,0.5478379,5.66,0,4.068667,218.4495,7.435392,0.4841883,4.76,0,0,0,15.39,75.44,15.47,13.21,5.217,0.541,240.6,16.79,13.59,6.2,101.515,8.76,8.76,8.75,100
"2014-08-17 00:38:00",1002740,4.932666,220.6589,6.308572,0.670368,5.6,0,4.168,217.7172,7.188864,0.6625426,5.17,0,0,0,15.36,75.72,15.44,13.23,4.854,0.414,223.6,16.79,13.59,5.763,101.513,8.76,8.76,8.76,100
"2014-08-17 00:39:00",1002741,4.436667,215.0198,9.826703,0.9244794,6.44,0,3.704667,219.6723,6.199343,0.6248079,4.89,0,0,0,15.35,75.79,15.42,13.22,5.25,0.514,242.2,16.8,13.59,5.95,101.5176,8.76,8.76,8.76,100
"2014-08-17 00:40:00",1002742,5.020667,215.8074,5.830808,0.6929018,6.3,0,3.873333,210.562,9.036487,0.6218325,4.92,0,0,0,15.32,76.01,15.4,13.22,5.358,0.531,247.6,16.81,13.59,6.075,101.5149,8.76,8.76,8.76,100
"2014-08-17 00:41:00",1002743,4.713999,212.1961,5.943103,0.4838981,5.75,0,3.654,209.3427,7.902199,0.5481459,4.6,0,0,0,15.34,75.69,15.44,13.2,5.042,0.366,232.4,16.81,13.59,5.575,101.515,8.76,8.76,8.76,100
"2014-08-17 00:42:00",1002744,4.186,210.1349,7.576917,0.5092452,5.33,0,3.325333,212.4058,8.430529,0.4875909,4.42,0,0,0,15.34,75.78,15.42,13.22,4.121,0.563,188.4,16.81,13.59,5.45,101.5144,8.76,8.76,8.76,100
"2014-08-17 00:43:00",1002745,4.521333,217.5351,4.755678,0.4948248,5.19,0,3.738,218.0025,4.856856,0.6495763,4.72,0,0,0,15.3,76.17,15.37,13.22,4.296,0.521,196.6,16.81,13.59,5.513,101.5136,8.76,8.76,8.76,100
"2014-08-17 00:44:00",1002746,5.466,219.3958,7.253374,0.6325589,6.65,0,4.398667,221.9384,8.278272,0.7177452,5.58,0,0,0,15.29,76.26,15.38,13.22,5.025,0.603,231.4,16.81,13.59,6.263,101.5095,8.76,8.76,8.76,100
"2014-08-17 00:45:00",1002747,4.168667,209.0703,5.505576,0.5957724,5,0,3.432667,214.4535,6.344234,0.5948273,4.65,0,0,0,15.27,76.41,15.34,13.22,4.454,0.607,204.2,16.81,13.59,5.388,101.5084,8.76,8.76,8.76,100
"2014-08-17 00:46:00",1002748,6.116,217.4066,5.754942,1.197307,7.85,0,5.38,218.5845,8.027447,1.26073,7.77,0,0,0,15.28,76.2,15.39,13.21,6.504,1.15,302.8,16.82,13.59,8.2,101.5023,8.76,8.76,8.76,100
"2014-08-17 00:47:00",1002749,4.886666,214.8737,4.465839,0.397872,5.68,0,4.496,217.7997,2.970393,0.5541819,6.03,0,0,0,15.31,76.04,15.41,13.22,6.596,0.517,306.8,16.83,13.59,7.45,101.5013,8.76,8.76,8.75,100
"2014-08-17 00:48:00",1002750,5.766667,209.9299,6.2709,0.5084707,6.74,0,4.804667,209.5364,8.253082,0.6213734,5.82,0,0,0,15.28,76.47,15.37,13.22,5.608,0.675,259.6,16.83,13.59,6.7,101.4999,8.76,8.76,8.76,100
"2014-08-17 00:49:00",1002751,6.248667,210.6008,2.916211,0.6724469,7.36,0,5.22,207.8767,7.760054,0.8045786,6.55,0,0,0,15.29,76.3,15.39,13.22,6.187,0.511,287.6,16.84,13.59,7.013,101.4973,8.76,8.76,8.76,100
"2014-08-17 00:50:00",1002752,5.744001,222.0684,5.613831,0.7216444,7.24,0,4.594667,221.3295,4.768706,0.4966536,5.39,0,0,0,15.33,76,15.43,13.22,5.9,0.585,273.4,16.84,13.59,6.7,101.4992,8.76,8.76,8.76,100
"2014-08-17 00:51:00",1002753,4.939333,217.9328,2.931029,0.2825707,5.59,0,3.958667,218.9309,5.914625,0.419839,4.74,0,0.06546666,22.8,15.3,76.43,15.37,13.24,4.808,0.556,221.4,16.84,13.59,5.888,101.4992,8.75,8.76,8.75,100
"2014-08-17 00:52:00",1002754,5.661333,221.4676,4.332954,1.155046,7.88,0,4.774,220.6685,3.805297,0.7815096,6.47,0,0,0,15.25,76.71,15.33,13.23,7.008,1.007,326.8,16.84,13.59,8.2,101.4966,8.76,8.76,8.76,100
"2014-08-17 00:53:00",1002755,6.2,219.601,3.876897,0.4836803,7.2,0,4.810667,218.467,5.029825,0.6575658,5.73,0,0,0,15.3,76.29,15.4,13.22,6.487,0.482,301.8,16.84,13.59,7.575,101.4948,8.76,8.76,8.75,100
"2014-08-17 00:54:00",1002756,4.917333,213.8605,6.506297,0.5998608,5.85,0,4.387333,214.3453,7.06227,0.6417836,5.31,0,0,0,15.31,76.42,15.39,13.23,5.454,0.81,252.2,16.86,13.59,6.7,101.4954,8.76,8.76,8.75,100
"2014-08-17 00:55:00",1002757,4.614667,214.1393,5.532706,0.323004,5.17,0,3.549334,214.102,8.506395,0.5364509,4.84,0,0,0,15.29,76.47,15.38,13.23,4.854,0.437,223.4,16.86,13.59,5.763,101.4945,8.76,8.76,8.75,100
"2014-08-17 00:56:00",1002758,5.295333,212.7989,4.083933,0.4745365,5.96,0,4.240667,210.064,4.372836,0.3642977,4.97,0,0,0,15.28,76.66,15.37,13.24,4.729,0.584,217.4,16.86,13.59,5.95,101.4944,8.76,8.76,8.75,100
"2014-08-17 00:57:00",1002759,3.994,209.0031,7.488801,0.4124528,4.86,0,3.048667,206.657,12.55534,0.6184051,4.68,0,0,0,15.29,76.44,15.38,13.22,5.471,0.73,253,16.86,13.59,6.763,101.4959,8.75,8.76,8.75,100
"2014-08-17 00:58:00",1002760,4.304667,217.1415,7.344156,0.8017969,5.32,0,3.501333,211.9341,4.900885,0.5596412,4.96,0,0,0,15.27,76.79,15.33,13.26,5.592,0.509,258.6,16.86,13.59,6.575,101.4928,8.76,8.76,8.75,100
"2014-08-17 00:59:00",1002761,4.034666,208.331,8.019262,0.4616328,4.63,0,3.114666,212.8688,7.217939,0.4771285,4,0,0,0,15.22,77.21,15.28,13.26,4.929,0.475,227.2,16.86,13.59,6.013,101.4942,8.75,8.76,8.75,100
"2014-08-17 01:00:00",1002762,4.844666,215.934,8.741948,0.7175687,6.41,0,3.729334,217.6595,6.834002,0.5850979,4.75,0,0,0,15.22,77.02,15.3,13.22,5.383,0.515,248.6,16.86,13.59,6.388,101.4938,8.76,8.76,8.75,100
"2014-08-17 01:01:00",1002763,4.366,210.2635,6.928726,0.3108011,4.7,0,3.719334,212.1944,7.239392,0.4399161,4.48,0,0,0,15.22,77.01,15.31,13.22,4.325,0.551,198.2,16.86,13.59,5.45,101.4932,8.75,8.76,8.75,100
"2014-08-17 01:02:00",1002764,4.823333,205.5392,6.99781,0.5231911,5.86,0,3.367333,199.4365,14.46407,0.645946,4.41,0,0,0,15.21,77.19,15.29,13.24,4.267,0.43,195,16.86,13.59,4.95,101.4957,8.76,8.76,8.75,100
"2014-08-17 01:03:00",1002765,4.890666,216.7363,6.893157,1.294725,6.58,0,3.71,218.6009,5.274641,0.7689734,4.94,0,0,0,15.22,76.94,15.31,13.22,5.896,0.593,273.6,16.86,13.59,7.138,101.4962,8.75,8.76,8.75,100
"2014-08-17 01:04:00",1002766,5.304,222.5992,4.785585,0.5871945,6.34,0,4.290667,223.3313,7.385082,0.7544839,5.68,0,0,0,15.23,76.95,15.32,13.22,5.933,0.519,275.2,16.86,13.59,6.763,101.4947,8.76,8.76,8.75,100
"2014-08-17 01:05:00",1002767,4.622,214.0089,6.953214,0.4862126,5.91,0,4.034,211.6452,9.513282,0.6121525,5.04,0,0,0,15.21,77.31,15.26,13.25,4.808,0.393,221,16.86,13.59,5.513,101.4944,8.76,8.76,8.75,100
"2014-08-17 01:06:00",1002768,4.950667,215.6705,5.28594,0.5356176,5.98,0,3.628,214.934,5.636183,0.3557003,4.33,0,0,0,15.19,77.29,15.28,13.22,5.529,0.589,256,16.86,13.59,6.638,101.4947,8.75,8.76,8.75,100
"2014-08-17 01:07:00",1002769,4.524666,212.4052,5.628835,0.7131234,5.65,0,3.585334,213.6651,5.603905,0.5664611,4.66,0,0,0,15.18,77.45,15.25,13.24,4.879,0.612,224.6,16.86,13.59,6.013,101.4939,8.75,8.76,8.75,100
"2014-08-17 01:08:00",1002770,4.894667,211.4031,7.564553,0.7022523,5.73,0,4.149333,213.0293,10.32831,0.6380435,5.07,0,0,0,15.15,77.73,15.22,13.24,5.058,0.614,233,16.86,13.59,5.95,101.4902,8.75,8.76,8.75,100
"2014-08-17 01:09:00",1002771,5.181334,212.539,6.212178,0.5499923,6.05,0,3.990667,206.608,8.682566,0.7584059,5.63,0,0.06686667,22.4,15.17,77.48,15.27,13.22,4.467,0.603,205,16.86,13.59,5.388,101.489,8.75,8.76,8.75,100
"2014-08-17 01:10:00",1002772,6.698667,216.6657,3.397986,0.7678009,8.12,0,5.556666,216.7766,7.878885,0.7560748,7.32,0,0.0676,19.6,15.19,77.36,15.28,13.22,6.15,0.689,285.6,16.86,13.59,7.2,101.4887,8.76,8.76,8.75,100
"2014-08-17 01:11:00",1002773,5.217334,207.3968,9.325875,0.8833305,7.14,0,3.924666,203.4946,11.69514,1.250359,5.9,0,0,0,15.22,77.09,15.32,13.22,4.862,0.603,223.8,16.86,13.59,5.825,101.4874,8.75,8.76,8.75,100
"2014-08-17 01:12:00",1002774,6.130666,213.8684,3.756001,0.5788203,7.07,0,5.299334,215.0668,3.192709,0.4746432,6.25,0,0,0,15.22,77.17,15.3,13.22,6.029,0.441,279.6,16.86,13.59,6.95,101.4846,8.76,8.76,8.75,100
"2014-08-17 01:13:00",1002775,5.602001,209.1408,4.933891,0.5636807,6.65,0,4.462667,209.5338,5.300987,0.7407515,5.87,0,0,0,15.22,77.13,15.31,13.22,4.917,0.726,226.4,16.86,13.59,6.325,101.4877,8.75,8.76,8.75,100
"2014-08-17 01:14:00",1002776,5.555334,211.4692,3.808468,0.459824,6.53,0,4.648,212.6677,4.641788,0.6103681,6.22,0,0,0,15.22,77.01,15.31,13.22,5.375,0.504,248.4,16.86,13.59,6.263,101.486,8.75,8.76,8.75,100
"2014-08-17 01:15:00",1002777,5.228,211.6691,5.359801,0.6582119,6.68,0,4.154666,210.5962,8.061418,0.6602208,5.56,0,0,0,15.22,77.11,15.3,13.22,4.725,0.624,217.2,16.86,13.59,5.575,101.4847,8.76,8.76,8.75,100
"2014-08-17 01:16:00",1002778,4.659999,208.729,6.144722,0.4002999,5.26,0,3.773333,212.5315,5.044319,0.6020262,4.58,0,0,0,15.22,77.12,15.3,13.22,5.237,0.734,242,16.86,13.59,7.013,101.4847,8.75,8.76,8.75,100
"2014-08-17 01:17:00",1002779,5.592667,216.2016,5.380998,0.7951056,6.92,0,4.653333,217.1331,3.666497,0.6566954,6.24,0,0,0,15.21,77.17,15.3,13.22,6.017,0.651,279,16.86,13.59,7.45,101.4837,8.76,8.76,8.75,100
"2014-08-17 01:18:00",1002780,4.028,215.2663,3.767089,0.511471,4.77,0,3.500667,216.2607,4.845138,0.4124636,4.22,0,0,0,15.18,77.35,15.26,13.22,4.925,0.647,226.2,16.86,13.59,5.7,101.4822,8.75,8.76,8.75,100
"2014-08-17 01:19:00",1002781,4.258,215.1981,4.747587,0.4025286,4.9,0,3.218,217.933,4.821249,0.603503,4.41,0,0,0,15.16,77.71,15.23,13.25,5.146,0.52,237.6,16.86,13.59,5.95,101.483,8.76,8.76,8.75,100
"2014-08-17 01:20:00",1002782,4.114,212.8623,7.490772,0.816903,5.72,0,3.066667,206.9514,8.068686,0.6878049,4.46,0,0,0,15.13,77.9,15.21,13.24,4.342,0.813,198.6,16.86,13.59,5.575,101.4826,8.75,8.76,8.75,100
"2014-08-17 01:21:00",1002783,4.089334,198.1765,10.48735,0.8797232,5.64,0,3.040667,204.7529,8.705333,0.9206552,4.54,0,0,0,15.11,78.02,15.17,13.23,4.096,0.399,187.2,16.86,13.59,4.763,101.4808,8.75,8.76,8.75,100
"2014-08-17 01:22:00",1002784,4.618667,207.1305,5.387491,0.9490968,6.22,0,4.051333,207.6617,4.836361,0.6933192,5.28,0,0,0,15.08,78.22,15.15,13.23,4.721,0.748,217,16.86,13.59,5.825,101.4827,8.75,8.76,8.75,100
"2014-08-17 01:23:00",1002785,5.640666,221.2652,4.248566,0.6389832,7.03,0,4.627334,223.0041,5.414295,0.7195226,5.87,0,0,0,15.1,77.89,15.21,13.2,6.242,0.661,290,16.86,13.59,7.075,101.4822,8.76,8.76,8.75,100
"2014-08-17 01:24:00",1002786,5.415999,220.0041,10.23796,0.9425553,6.99,0,4.702667,221.7755,8.932493,0.6621527,6.07,0,0,0,15.13,77.77,15.23,13.22,6.254,0.642,290.4,16.86,13.59,7.325,101.4811,8.76,8.76,8.75,100
"2014-08-17 01:25:00",1002787,5.055334,216.2743,7.906257,0.829794,6.26,0,3.898,217.3217,11.87267,0.7767728,5.05,0,0,0,15.11,77.91,15.19,13.22,5.654,0.553,262,16.86,13.59,6.575,101.4798,8.75,8.76,8.75,100
"2014-08-17 01:26:00",1002788,4.796667,214.9871,8.022965,0.7194318,5.87,0,3.908666,216.0604,7.591926,0.7895219,5.17,0,0,0,15.08,78.01,15.17,13.21,6.029,0.653,279.6,16.86,13.59,6.95,101.4745,8.75,8.76,8.75,100
"2014-08-17 01:27:00",1002789,5.270668,211.602,6.932011,0.4034594,5.99,0,4.118667,213.0611,5.843645,0.7078122,5.19,0,0,0,15.08,78.01,15.15,13.21,5.567,0.545,205.4,16.86,13.59,6.575,101.4731,8.75,8.76,8.75,100
"2014-08-17 01:28:00",1002790,5.032667,211.931,4.387304,0.8560098,6.43,0,4.610667,215.9338,4.84875,0.6976385,6.25,0,0,0,15.06,78.12,15.13,13.22,6.092,0.692,92.8,16.86,13.59,7.138,101.4701,8.76,8.76,8.75,100
"2014-08-17 01:29:00",1002791,3.938666,205.8012,9.531994,0.4101523,4.49,0,3.178,207.39,8.078334,0.5997355,4.14,0,0,0,15.02,78.57,15.08,13.22,4.796,0.822,198.8,16.86,13.59,6.138,101.4696,8.75,8.76,8.75,100
"2014-08-17 01:30:00",1002792,4.058,215.4597,7.10968,0.60326,5.23,0,3.302666,215.1398,6.444637,0.5791887,4.14,0,0,0,15,78.66,15.07,13.22,4.767,0.737,219.2,16.86,13.59,5.888,101.4676,8.75,8.76,8.75,100
"2014-08-17 01:31:00",1002793,4.412,214.7355,7.623758,0.6060385,5.25,0,3.545333,212.5999,9.391231,0.5577079,4.39,0,0,0,14.97,78.88,15.04,13.2,5.175,0.432,238.8,16.86,13.59,5.825,101.4662,8.75,8.76,8.75,100
"2014-08-17 01:32:00",1002794,4.422667,202.3964,6.838024,0.7396077,5.29,0,3.432,207.0794,6.097877,0.3263577,4.09,0,0,0,14.99,78.48,15.08,13.15,5.142,0.716,237.4,16.86,13.59,6.7,101.4642,8.75,8.76,8.75,100
"2014-08-17 01:33:00",1002795,4.887333,213.5699,11.21896,0.5158742,5.96,0,4.023334,210.1796,12.87821,0.8045094,6.19,0,0,0,15.01,78.41,15.1,13.16,5.45,0.523,251.8,16.86,13.59,6.2,101.4646,8.75,8.76,8.75,100
"2014-08-17 01:34:00",1002796,5.426667,214.1333,2.362386,0.4627694,6.61,0,4.413333,214.1986,4.546534,0.4683968,5.34,0,0,0,15.04,78.14,15.13,13.14,5.717,0.517,264.8,16.85,13.59,6.513,101.4627,8.75,8.76,8.75,100
"2014-08-17 01:35:00",1002797,5.166667,212.6564,6.502271,0.7731637,6.79,0,4.003334,205.9998,7.106839,0.4847771,4.88,0,0,0,15.03,78.43,15.09,13.19,5.992,0.775,278.2,16.84,13.59,7.263,101.4626,8.75,8.76,8.75,100
"2014-08-17 01:36:00",1002798,5.392667,212.4859,7.376625,0.7855653,6.91,0,4.058667,210.6736,7.352435,0.4182481,4.8,0,0,0,14.98,78.75,15.07,13.19,5.575,0.348,258,16.84,13.59,6.325,101.4597,8.75,8.75,8.75,100
"2014-08-17 01:37:00",1002799,5.505333,213.1976,4.19721,0.5877172,6.61,0,4.348667,209.8671,6.385147,0.7859082,5.57,0,0,0,14.98,78.6,15.07,13.15,4.833,0.317,222.2,16.84,13.59,5.325,101.4588,8.75,8.75,8.75,100
"2014-08-17 01:38:00",1002800,5.607333,213.6025,7.821173,0.813867,7.2,0,4.681334,213.2732,5.999955,0.7738377,6.68,0,0,0,14.97,78.68,15.08,13.16,6.254,1.222,290.6,16.84,13.59,8.45,101.4581,8.75,8.76,8.75,100
"2014-08-17 01:39:00",1002801,6.622667,209.3443,8.794737,0.6553519,7.78,0,5.075999,212.9369,5.729037,0.7518049,6.87,0,0,0,14.98,78.58,15.08,13.15,6.904,0.848,322,16.84,13.59,8.2,101.4535,8.75,8.76,8.75,100
"2014-08-17 01:40:00",1002802,6.359334,213.0666,5.845231,0.7626661,7.52,0,5.098,212.2557,5.702119,0.5962795,6.11,0,0,0,14.99,78.54,15.09,13.16,6.996,0.45,326,16.84,13.59,7.7,101.4524,8.75,8.76,8.75,100
"2014-08-17 01:41:00",1002803,5.691333,220.7337,3.767245,0.8514761,6.94,0,4.279334,221.8672,5.044085,0.9604823,6.03,0,0,0,14.98,78.76,15.07,13.19,6.408,0.704,298,16.83,13.59,7.575,101.4508,8.75,8.75,8.75,100
"2014-08-17 01:42:00",1002804,3.952,207.0011,6.095935,0.4398363,4.97,0,2.89,209.8017,4.165595,0.3917992,3.59,0,0,0,14.94,79.14,15.01,13.22,4.579,0.6,210.2,16.83,13.59,5.638,101.4518,8.75,8.76,8.75,100
"2014-08-17 01:43:00",1002805,5.236001,209.7324,4.169318,0.7979375,6.3,0,4.134667,205.8858,11.01186,1.274451,6.57,0,0,0,14.91,79.37,14.98,13.19,4.862,1.131,223.8,16.82,13.59,6.388,101.4497,8.75,8.76,8.75,100
"2014-08-17 01:44:00",1002806,5.777334,212.0779,8.230524,1.082937,7.41,0,4.570666,216.8043,8.578972,0.7651621,5.74,0,0,0,14.93,79.01,15.03,13.14,7.133,0.744,332.8,16.82,13.59,8.33,101.4485,8.75,8.75,8.75,100
"2014-08-17 01:45:00",1002807,5.512001,223.8658,5.263093,0.5991682,7.22,0,4.489333,220.5993,3.401563,0.9252565,6.07,0,0,0,14.94,78.97,15.04,13.17,5.158,0.629,238,16.81,13.59,6.45,101.4472,8.75,8.76,8.75,100
"2014-08-17 01:46:00",1002808,5.217333,211.3388,8.231756,0.6710635,6.31,0,4.258,211.7797,10.58705,0.4187951,5.31,0,0,0,14.96,78.87,15.07,13.16,5.046,0.442,232.8,16.81,13.59,5.825,101.4478,8.75,8.75,8.75,100
"2014-08-17 01:47:00",1002809,5.597333,211.9355,3.547992,0.5898979,6.54,0,4.55,209.8042,5.404937,0.7698571,5.62,0,0,0,14.98,78.77,15.08,13.15,4.817,0.575,221.6,16.81,13.59,5.7,101.4437,8.76,8.76,8.75,100
"2014-08-17 01:48:00",1002810,5.184667,217.4492,7.659426,0.5989865,6.28,0,4.317333,213.7817,8.888177,0.8299596,5.79,0,0,0,14.97,78.72,15.08,13.15,6.471,1.024,300.8,16.81,13.59,7.95,101.444,8.76,8.76,8.75,100
"2014-08-17 01:49:00",1002811,5.846666,212.1745,8.354282,0.6297583,7.06,0,5.080666,213.6635,4.509854,0.7372422,6.62,0,0,0,14.98,78.58,15.09,13.15,6.925,0.773,322.8,16.81,13.59,7.763,101.441,8.75,8.76,8.75,100
"2014-08-17 01:50:00",1002812,5.566,218.6528,7.063811,0.8556697,6.97,0,4.344,217.1178,9.087325,0.5279116,5.44,0,0,0,14.98,78.79,15.07,13.18,6.021,0.909,279.4,16.81,13.59,7.138,101.4405,8.75,8.76,8.75,100
"2014-08-17 01:51:00",1002813,4.280667,208.1676,7.320484,0.5299241,5.58,0,3.499333,207.6019,6.719052,0.7449337,5.41,0,0,0,14.94,79.25,14.98,13.22,4.896,0.792,225.6,16.81,13.59,7.013,101.4391,8.75,8.76,8.75,100
"2014-08-17 01:52:00",1002814,6.006667,217.8124,7.188464,0.5768381,6.8,0,4.444,212.0031,7.744015,0.4689676,5.72,0,0,0,14.9,79.47,14.96,13.19,6.65,0.874,309.4,16.81,13.59,8.2,101.4384,8.75,8.76,8.75,100
"2014-08-17 01:53:00",1002815,4.411333,209.0779,7.453351,0.5822241,5.38,0,3.854667,215.1286,6.485797,0.5374863,4.43,0,0,0,14.9,79.32,14.98,13.17,4.837,0.558,222.6,16.79,13.59,5.763,101.4369,8.75,8.75,8.75,100
"2014-08-17 01:54:00",1002816,4.573999,215.9331,6.484182,0.6455261,5.53,0,3.595334,213.1636,12.96253,0.944527,5.15,0,0,0,14.89,79.44,14.97,13.16,4.467,0.993,204.8,16.79,13.59,6.575,101.4379,8.75,8.76,8.75,100
"2014-08-17 01:55:00",1002817,4.762001,217.0332,6.597624,0.5499721,5.61,0,3.798666,218.6563,5.454095,0.5361326,4.8,0,0,0,14.91,79.23,15,13.16,5.296,0.613,244.8,16.79,13.59,6.2,101.4383,8.75,8.75,8.75,100